Weather History for KMBS - July, 2013

Change the Weather History Date:

Monday, July 29, 2013

  Actual Average Record
Temperature  
Mean Temperature 65 °F 71 °F  
Max Temperature 73 °F 81 °F 91 °F (2006)
Min Temperature 56 °F 60 °F 50 °F (2014)
Degree Days  
Heating Degree Days 0    
Month to date heating degree days 11  
Since 1 June heating degree days 64  
Since 1 July heating degree days 11  
Cooling Degree Days 0    
Month to date cooling degree days 231  
Year to date cooling degree days 444  
Since 1 June cooling degree days 370  
Growing Degree Days 14 (Base 50)    
Moisture  
Dew Point 54 °F    
Average Humidity 73    
Maximum Humidity 93    
Minimum Humidity 53    
Precipitation  
Precipitation 0.09 in 0.09 in 1.61 in (1996)
Month to date precipitation 0.63 2.40  
Year to date precipitation 21.52 17.03  
Snow  
Snow 0.00 in - - ()
Month to date snowfall 0.0  
Since 1 June snowfall 0.0  
Since 1 July snowfall 0.0  
Snow Depth 0.00 in    
Sea Level Pressure  
Sea Level Pressure 30.04 in    
Wind  
Wind Speed 8 mph (West)    
Max Wind Speed 16 mph    
Max Gust Speed 18 mph    
Visibility 10 miles    
Events Rain    
T = Trace of Precipitation, MM = Missing Value Source: NWS Daily Summary

Daily Weather History Graph

Daily Weather History Graph

Search for Another Location

Airport or City:

Trip Planner

Search our weather history database for the weather conditions in past years. The results will help you decide how hot, cold, wet, or windy it might be!

Date:

Astronomy

Jul. 29, 2013 Rise Set
Actual Time 6:22 AM EDT 9:02 PM EDT
Civil Twilight 5:49 AM EDT 9:34 PM EDT
Nautical Twilight 5:08 AM EDT 10:16 PM EDT
Astronomical Twilight 4:21 AM EDT 11:03 PM EDT
Moon 12:09 AM EDT (7/29) 2:19 PM EDT (7/29)
Length of Visible Light 15h 45m
Length of Day
14h 39m
Waning Gibbous, 51% of the Moon is Illuminated
Jul 29
Waning Gibbous
Jul 29
Last Quarter
Aug 6
New
Aug 14
First Quarter
Aug 20
Full

Hourly Weather History & Observations

Time (EDT) Temp. Dew Point Humidity Pressure Visibility Wind Dir Wind Speed Gust Speed Precip Events Conditions
12:53 AM 57.0 °F 54.0 °F 89% 29.96 in 10.0 mi SW 10.4 mph - 0.02 in Rain Light Rain
1:53 AM 55.9 °F 54.0 °F 93% 29.95 in 10.0 mi South 8.1 mph - 0.08 in Rain Light Rain
2:01 AM 55.4 °F 53.6 °F 94% 29.95 in 10.0 mi South 8.1 mph - 0.00 in Rain Light Rain
2:53 AM 57.0 °F 55.0 °F 93% 29.94 in 6.0 mi South 10.4 mph - 0.01 in Rain Light Rain
3:09 AM 57.2 °F 55.4 °F 94% 29.94 in 9.0 mi South 9.2 mph - 0.00 in   Overcast
3:45 AM 57.2 °F 55.4 °F 94% 29.95 in 10.0 mi SW 11.5 mph - 0.00 in   Overcast
3:53 AM 57.0 °F 55.0 °F 93% 29.95 in 10.0 mi SW 10.4 mph - 0.00 in   Overcast
4:01 AM 57.2 °F 55.4 °F 94% 29.95 in 10.0 mi WSW 10.4 mph - N/A   Overcast
4:30 AM 57.2 °F 55.4 °F 94% 29.95 in 10.0 mi WSW 9.2 mph - N/A   Overcast
4:53 AM 57.0 °F 55.0 °F 93% 29.96 in 10.0 mi West 9.2 mph - N/A   Overcast
5:20 AM 57.2 °F 55.4 °F 94% 29.97 in 10.0 mi West 9.2 mph - N/A   Overcast
5:31 AM 57.2 °F 53.6 °F 88% 29.97 in 10.0 mi West 9.2 mph - N/A   Overcast
5:53 AM 57.0 °F 55.0 °F 93% 29.98 in 10.0 mi WSW 6.9 mph - N/A   Overcast
6:07 AM 57.2 °F 53.6 °F 88% 29.98 in 10.0 mi West 6.9 mph - N/A   Overcast
6:53 AM 57.0 °F 55.0 °F 93% 30.00 in 10.0 mi WSW 8.1 mph - N/A   Overcast
7:23 AM 57.2 °F 53.6 °F 88% 30.01 in 10.0 mi West 9.2 mph - N/A   Overcast
7:35 AM 57.2 °F 53.6 °F 88% 30.01 in 10.0 mi West 9.2 mph - N/A   Overcast
7:46 AM 57.2 °F 53.6 °F 88% 30.02 in 10.0 mi West 10.4 mph - N/A   Overcast
7:53 AM 57.0 °F 54.0 °F 89% 30.02 in 10.0 mi West 9.2 mph - N/A   Overcast
8:53 AM 57.9 °F 54.0 °F 87% 30.05 in 10.0 mi NW 6.9 mph - N/A   Overcast
9:21 AM 57.2 °F 53.6 °F 88% 30.05 in 9.0 mi West 6.9 mph - N/A   Overcast
9:53 AM 60.1 °F 54.0 °F 80% 30.06 in 10.0 mi West 8.1 mph - N/A   Mostly Cloudy
10:53 AM 62.1 °F 54.0 °F 75% 30.06 in 10.0 mi West 11.5 mph - N/A   Overcast
11:53 AM 66.0 °F 53.1 °F 63% 30.07 in 10.0 mi WNW 5.8 mph - N/A   Mostly Cloudy
12:53 PM 66.9 °F 54.0 °F 63% 30.09 in 10.0 mi West 6.9 mph - N/A   Overcast
1:53 PM 68.0 °F 55.0 °F 63% 30.09 in 10.0 mi West 11.5 mph 16.1 mph N/A   Overcast
2:53 PM 71.1 °F 54.0 °F 55% 30.09 in 10.0 mi West 9.2 mph 17.3 mph N/A   Overcast
3:53 PM 70.0 °F 54.0 °F 57% 30.10 in 10.0 mi West 10.4 mph 17.3 mph N/A   Mostly Cloudy
4:53 PM 72.0 °F 55.0 °F 55% 30.11 in 10.0 mi West 10.4 mph - N/A   Overcast
5:53 PM 71.1 °F 55.0 °F 57% 30.12 in 10.0 mi WNW 10.4 mph - N/A   Mostly Cloudy
6:53 PM 71.1 °F 55.0 °F 57% 30.13 in 10.0 mi WNW 8.1 mph - N/A   Overcast
7:53 PM 69.1 °F 55.9 °F 63% 30.14 in 10.0 mi NNW 6.9 mph - N/A   Scattered Clouds
8:53 PM 66.9 °F 54.0 °F 63% 30.15 in 10.0 mi NW 5.8 mph - N/A   Partly Cloudy
9:53 PM 64.0 °F 54.0 °F 70% 30.17 in 10.0 mi WSW 3.5 mph - N/A   Clear
10:53 PM 61.0 °F 54.0 °F 78% 30.19 in 10.0 mi North 3.5 mph - N/A   Clear
11:53 PM 60.1 °F 54.0 °F 80% 30.19 in 10.0 mi Calm Calm - N/A   Clear